This is the latest recevied weather packets stored in our database for station/object MB7UKY-10. If no packets are shown the sender has not sent any weather packets the latest 1 day(s).
| Time | Temp. | Humidity | Pressure | Rain* | Wind** | Luminosity | Snow |
|---|---|---|---|---|---|---|---|
| 1778099380 | 15.56° C | 54% | 1010.5 hPa | - | - | - | - |
| 1778097578 | 15° C | 55% | 1010.4 hPa | - | - | - | - |
| 1778093975 | 15.56° C | 55% | 1010 hPa | - | - | - | - |
| 1778090372 | 15.56° C | 54% | 1009.5 hPa | - | - | - | - |
| 1778086769 | 16.11° C | 55% | 1009.2 hPa | - | - | - | - |
| 1778085868 | 16.11° C | 54% | 1009 hPa | - | - | - | - |
| 1778083166 | 16.67° C | 53% | 1009 hPa | - | - | - | - |
| 1778082265 | 16.67° C | 53% | 1009 hPa | - | - | - | - |
| 1778079563 | 16.67° C | 53% | 1008.9 hPa | - | - | - | - |
| 1778076861 | 17.22° C | 52% | 1008.8 hPa | - | - | - | - |
| 1778075960 | 17.22° C | 52% | 1008.9 hPa | - | - | - | - |
| 1778074158 | 17.22° C | 51% | 1008.9 hPa | - | - | - | - |
| 1778070555 | 17.22° C | 52% | 1009.1 hPa | - | - | - | - |
| 1778069654 | 17.22° C | 52% | 1009 hPa | - | - | - | - |
| 1778066952 | 16.67° C | 53% | 1009 hPa | - | - | - | - |
| 1778066051 | 16.67° C | 53% | 1009 hPa | - | - | - | - |
| 1778063349 | 16.11° C | 52% | 1008.8 hPa | - | - | - | - |
| 1778062448 | 15.56° C | 53% | 1008.8 hPa | - | - | - | - |
| 1778059746 | 15.56° C | 53% | 1008.8 hPa | - | - | - | - |
| 1778058845 | 15.56° C | 54% | 1008.7 hPa | - | - | - | - |
| 1778056143 | 15.56° C | 54% | 1008.5 hPa | - | - | - | - |
| 1778053441 | 13.89° C | 56% | 1008.4 hPa | - | - | - | - |
| 1778052540 | 13.89° C | 55% | 1008.2 hPa | - | - | - | - |
| 1778049837 | 13.89° C | 54% | 1008 hPa | - | - | - | - |
| 1778048936 | 13.89° C | 54% | 1007.9 hPa | - | - | - | - |
* Rain since midnight (hover to see other rain measurements)
** Current wind speed in m/s (hover to see current wind gust speed)